Location: Hermaringen
(48.5952°N, 10.2585°E)
Time: 21:35:10
(UTC+00:00)

Cosmos 2034 Rocket - Pass Details

Date: 18 November 2025
Orbit: 958 x 998 km, 82.9° (Epoch: 10 December)

Event Time Altitude Azimuth Distance (km) Brightness Sun altitude
Rises 17:55:09 0° 186° (S) 3,639 7.1 -22.7°
Reaches altitude 10° 17:57:37 10° 186° (S) 2,701 6.4 -23.2°
Maximum altitude 18:03:49 88° 97° (E) 982 3.9 -24.2°
Drops below altitude 10° 18:10:08 10° 10° (N) 2,748 6.2 -25.2°
Sets 18:12:41 0° 10° (N) 3,706 6.9 -25.6°
